Showing default

CONNECTA IOT-10, 64555

Orbit data source: Space-Track

CONNECTA IOT-10, 64555 is a payload satellite owned by Plan-S (TR) in SSO that was launched on Mon, 23 Jun 2025 UTC via an FALCON 9 launch vehicle from the Air Force Western Test Range (AFWTR). Payload-class satellites include a variety of spacecraft equipped with specific instruments for various scientific and technological missions. These include communications satellites like Starlink; space stations such as the ISS; scientific satellites like the Hubble; Earth observation satellites from companies like Planet Labs, Umbra, and HawkEye 360; GPS; miniature CubeSats for education and research; and military/defense satellites.

Loading next visibility...
Identifier
64555, 2025-135AD
Orbit
SSO
Country
Flag of TRTR / TURK
Related business
Manufacturer
Plan-S
Mission
Operational Commercial Communications
Bus & Motor
CUBESAT 6U, Unknown motor
Mass
10 kg wet, 10 kg dry
Launch date (UTC)
2025-06-23 (11 months ago)
Launch vehicle
FALCON 9
Launch site
Air Force Western Test Range (AFWTR)
Object type
Payload
Rocket body
Debris
Shape & HBR
Box, 2.2 m
Radar Cross Section
0.080 m², Medium (>0.1 m² and < 1m²)

Expand to show TLE details & history
Last TLE update: 3 hours ago

TLE from 3 hours ago
0 CONNECTA IOT-10
1 64555U 25135AD  26133.53875655  .00002077  00000-0  99099-4 0  9996
2 64555  97.4643 248.9100 0002523  90.2658 269.8866 15.20190371 49597
Epoch: 2026-05-13T12:55Z
TLE epoch observation values (Epoch: 2026-05-13T12:55:48.565Z)
Latitude
-0.00007°
Longitude
-176.33968°
Altitude
508.359 km
Speed
7.61 km/s
True Right ascension
16h 35m 38s
True Declination
0° 00' 00"
Sunlit
Object was in full shadow at epoch
Visualization orbit readout
Latitude
Unknown
Longitude
Unknown
Altitude
Unknown
Speed
Unknown
Apparent Right ascension
Unknown
Apparent Declination
Unknown
Sunlit
N/A
Visualization observer readout
Local Sidereal Time
00:50:38
Azimuth
Unknown
Elevation
Unknown
Doppler factor
Unknown
Orbital elements
Apogee altitude
503.97 km
Perigee altitude
500.498 km
Semi-major axis
6,880.371 km
Eccentricity
0.00025
Inclination
97.4643°
RAAN
248.91°
Arg. of periapsis
90.2658°
True anomaly
269.85769°
Mean anomaly
269.8866°
Eccentric anomaly
269.87214°
Mean motion
3.80299 °/min
Orbital period
94.66 mins
BSTAR
0.000099099
Loading maneuver chart data...
Computing Atmospheric mass density...
Loading historical data...
Loading historical data...
Loading historical data...
Loading historical data...
Loading historical data...
Loading historical data...
Loading historical data...

Documentation

Showing up to 5 results
|